Wind_Speed
27 29 29 24 21 21 19 18 17 18 22 22 20 20 19 20 20 18 16 13 11 13 16 17 19 22 25 24 20 15 15 13 10 8 7 8 9 7 6 5 6 6 6 5 6 10 13 14 14 16 17 17 15 14 13 12 12 12 11 11 11 10 9 9 8 7 7 7 7 6 6 6 6 5 5 4 4 5 4 4 4 4 4 4 5 6
24 25 24 23 23 23 21 20 19 21 25 25 23 22 21 20 22 22 20 17 16 16 16 17 18 22 25 27 26 21 16 13 11 9 7 7 8 9 8 7 7 7 6 6 7 9 11 13 13 14 15 16 15 14 13 13 12 11 11 11 10 10 9 9 8 7 7 7 6 6 6 5 6 5 5 4 3 3 3 2 3 3 3 4 6 7
20 17 17 22 25 25 24 23 22 22 26 27 25 23 21 20 22 24 24 24 23 21 21 19 18 22 26 28 29 24 17 13 12 10 9 8 9 10 10 9 9 7 7 8 9 10 11 13 14 14 14 14 14 14 13 12 11 11 11 11 11 10 10 9 8 7 7 7 6 6 6 5 5 5 4 4 2 2 1 1 1 2 3 5 6 8
17 13 14 21 26 28 27 26 25 25 27 28 29 27 23 23 24 22 23 23 22 19 18 19 20 25 29 31 30 24 19 15 13 11 11 9 8 11 12 11 9 8 8 9 10 11 13 14 14 15 15 14 13 12 12 11 11 11 11 11 11 10 10 9 9 8 7 7 7 6 6 6 6 5 4 4 3 2 1 1 2 3 4 6 7 8
16 13 16 21 24 28 29 29 28 28 27 28 29 28 25 26 25 20 21 21 18 15 15 19 23 28 32 33 29 25 22 17 14 14 13 10 8 11 13 11 9 9 9 10 9 10 12 13 14 15 15 14 12 12 12 12 12 12 12 11 11 10 10 10 9 8 8 7 7 7 7 7 6 5 4 4 3 2 2 2 3 4 5 7 8 9
17 16 19 21 22 26 29 30 30 28 27 28 29 27 25 29 26 20 20 20 18 19 23 25 27 31 33 33 30 26 22 18 15 14 13 12 10 10 12 11 9 10 11 10 9 9 10 11 12 13 13 13 13 14 14 13 13 12 12 11 11 11 10 10 9 9 8 8 8 7 8 7 6 5 5 4 4 3 2 3 4 5 6 7 8 9
16 17 20 21 22 24 27 30 31 30 29 28 26 26 27 31 30 24 23 24 21 23 25 27 28 31 34 33 31 26 22 19 17 14 14 15 13 10 10 11 10 10 12 11 9 10 9 9 10 10 11 12 14 14 13 12 12 12 12 12 12 12 11 10 9 8 8 8 8 8 8 8 6 6 5 5 4 4 3 4 5 6 7 8 8 8
15 19 20 21 22 24 25 27 30 32 32 26 22 27 30 32 32 29 29 30 26 23 23 24 24 27 32 32 29 25 22 22 19 14 14 16 15 10 9 10 11 11 13 12 10 11 11 10 10 10 9 10 11 11 10 10 11 11 12 12 12 12 11 10 9 8 9 9 8 8 8 8 7 6 5 5 4 4 4 4 6 7 8 9 9 8
18 20 19 20 23 24 22 23 27 32 32 24 22 29 32 31 31 31 33 34 29 26 27 26 24 27 31 29 27 27 27 25 20 14 15 16 15 12 9 10 11 12 13 13 12 11 11 11 11 11 10 9 8 8 8 9 9 10 10 10 10 11 11 11 10 9 10 10 9 8 9 9 8 6 6 5 5 5 5 5 6 8 9 9 9 8
20 18 19 23 24 23 21 20 24 30 31 24 25 30 31 32 32 33 36 36 33 34 34 29 27 29 29 29 30 30 30 26 19 15 16 16 16 14 11 11 11 13 14 14 12 12 11 11 12 12 10 9 7 8 9 9 9 10 10 10 10 11 11 12 12 11 11 10 9 9 10 10 8 7 6 6 6 6 7 7 7 9 9 9 9 8
21 20 23 24 22 21 21 22 24 27 29 27 29 31 32 36 36 37 39 38 39 43 40 32 28 30 32 33 35 34 30 24 19 17 16 16 17 15 14 14 14 15 16 16 15 13 12 12 13 13 11 10 10 10 10 10 11 12 12 12 12 12 12 12 13 13 12 11 11 11 11 10 9 8 8 8 8 8 9 9 8 9 9 9 9 9
23 24 24 21 21 22 23 25 25 26 28 29 32 33 35 39 41 42 42 43 46 49 43 34 29 33 37 37 35 33 28 22 21 20 17 15 15 15 14 16 17 17 17 18 17 16 15 15 15 14 14 14 13 12 12 13 14 14 14 13 13 13 13 14 14 14 14 13 12 12 12 12 11 10 10 10 9 9 10 10 9 10 10 10 10 9
24 24 22 22 23 23 25 25 25 26 28 30 34 36 38 40 44 46 46 48 51 49 43 36 34 38 42 38 33 32 27 23 22 20 16 14 14 15 15 16 18 19 19 18 18 17 16 17 17 16 17 16 15 14 15 16 16 16 16 15 15 15 16 16 16 16 15 14 14 14 14 14 13 12 11 11 11 11 11 11 10 10 11 11 10 10
27 25 25 27 25 24 25 25 26 27 27 29 33 37 40 41 45 47 47 49 50 48 42 38 38 43 44 38 34 32 29 26 24 20 15 14 14 14 15 17 19 20 19 19 19 19 18 19 19 18 19 17 16 17 18 18 18 17 17 17 17 18 19 19 18 18 18 17 17 16 16 16 15 14 13 13 12 12 12 12 11 11 11 11 11 10
30 29 27 26 24 23 24 25 25 25 26 27 29 34 39 41 43 45 45 47 48 47 44 41 43 48 46 40 35 31 28 26 26 22 16 14 14 13 15 18 20 21 20 20 20 21 21 21 20 20 20 19 18 20 20 20 19 18 18 19 20 20 21 21 20 19 19 20 20 19 18 18 17 16 15 14 14 14 13 13 12 12 12 12 12 11
33 31 25 25 25 24 25 25 25 27 28 27 27 33 38 38 41 43 45 46 47 49 47 45 48 49 45 41 36 31 30 28 28 27 22 18 16 16 18 19 19 20 22 22 21 22 24 23 22 23 22 21 21 22 21 20 19 18 18 19 20 21 21 22 22 21 20 21 22 22 21 21 20 18 17 16 16 15 15 14 14 13 13 13 13 12
35 30 23 26 30 28 26 25 26 29 30 28 29 33 32 31 36 42 44 44 46 51 49 47 49 48 44 42 38 34 33 31 30 31 29 23 20 20 21 19 17 17 21 24 23 23 23 23 24 25 23 22 23 22 20 19 19 18 19 19 19 20 20 21 22 22 22 23 23 23 23 23 22 21 20 19 19 18 16 15 15 14 14 13 13 12
37 33 27 28 31 28 26 26 29 30 30 31 32 30 28 28 33 39 43 44 46 50 50 46 47 47 44 43 39 36 35 31 28 28 28 25 24 24 21 18 16 14 17 23 24 23 22 23 25 24 23 22 23 22 20 19 19 18 18 18 18 19 19 21 23 24 25 24 24 24 25 24 24 23 23 22 21 20 18 16 16 15 14 14 13 12
38 38 33 31 31 28 27 30 33 34 33 33 31 29 29 31 33 37 42 44 45 48 48 45 45 46 44 43 39 35 34 29 24 25 28 28 27 24 19 15 14 14 15 19 21 21 22 24 25 23 21 22 24 23 20 19 18 17 17 18 18 19 20 21 23 24 25 25 25 25 26 25 25 24 24 24 23 22 20 18 18 16 15 14 13 12
38 41 38 34 32 31 32 36 39 37 35 33 33 33 33 34 34 35 37 40 41 44 44 41 42 43 42 41 39 36 33 26 22 25 29 29 23 18 14 11 12 14 13 16 18 20 22 24 24 23 22 24 24 22 20 18 17 16 17 18 19 20 20 21 21 22 24 24 25 25 26 25 25 25 25 25 24 23 22 20 18 16 16 15 13 13
40 43 41 36 34 36 40 42 40 37 35 36 36 37 36 35 36 36 37 38 39 41 40 38 39 37 36 38 38 37 33 25 20 24 29 27 21 17 15 12 13 15 13 13 15 17 21 23 23 22 23 24 24 22 20 18 16 16 17 18 19 20 20 20 20 21 22 23 24 24 24 23 23 23 23 23 23 22 22 20 18 16 16 15 14 13
42 44 42 38 39 42 43 41 39 37 36 36 36 36 35 35 35 37 39 39 40 41 39 36 35 32 31 34 35 36 33 25 21 24 28 27 24 21 18 14 15 15 13 13 13 13 18 21 22 23 24 25 24 22 19 17 16 16 16 17 19 19 19 19 20 21 21 22 22 22 22 22 21 21 20 20 20 20 20 19 18 16 15 15 15 14
40 43 44 44 43 43 41 39 39 38 37 36 36 35 34 35 36 37 39 39 38 39 38 36 35 29 25 27 29 31 30 27 25 25 27 28 26 24 20 16 17 18 16 16 16 14 17 22 24 24 25 26 24 20 18 17 18 16 16 17 18 18 18 18 19 21 21 21 21 21 21 20 20 19 18 19 19 19 19 19 17 16 16 16 15 14
37 43 48 47 44 41 40 40 41 40 39 38 39 37 36 37 36 36 36 35 36 38 37 38 38 28 18 20 25 28 29 29 29 28 28 29 28 26 22 19 19 20 20 20 20 18 18 23 27 27 28 27 23 19 16 17 18 18 17 17 18 17 17 18 19 20 20 20 20 20 19 18 18 17 17 18 18 18 18 18 17 17 17 16 15 15
36 44 48 48 47 46 45 45 46 46 44 43 42 39 38 37 36 36 36 36 37 39 38 40 41 31 19 17 23 31 34 33 32 31 30 31 30 26 23 20 19 20 22 22 24 23 22 25 30 30 29 27 23 18 15 16 19 20 19 18 18 18 18 18 19 19 19 20 20 19 18 18 17 17 17 18 18 18 18 18 17 17 17 16 16 15
41 44 47 50 54 54 52 51 50 49 47 45 45 42 40 39 38 38 39 41 42 42 39 40 42 35 25 20 22 31 37 36 34 34 33 32 32 28 23 21 21 22 24 26 26 26 24 26 32 33 31 27 23 19 17 18 20 21 21 20 20 20 20 20 20 20 20 20 20 19 19 18 17 17 18 20 19 18 18 18 18 18 17 17 16 15
52 50 52 54 56 55 52 49 47 47 47 46 46 44 42 40 39 40 42 44 44 41 40 41 40 36 31 26 23 26 34 37 34 33 34 34 33 30 25 22 22 23 25 28 28 26 24 24 29 33 32 29 26 22 20 21 22 23 25 23 22 21 21 21 21 21 21 21 20 20 20 19 19 19 21 21 21 20 19 19 19 18 18 17 16 14
55 57 59 58 56 54 50 45 43 44 47 46 45 45 43 39 39 42 45 46 43 41 42 40 37 37 34 30 26 24 26 34 33 30 31 32 33 33 30 27 28 27 26 26 27 26 26 24 26 31 32 30 28 25 23 22 23 25 27 26 24 24 23 23 22 22 21 21 21 20 21 21 21 22 23 23 23 22 21 20 19 19 19 17 15 15
56 59 61 61 58 55 51 46 44 44 46 47 46 45 45 41 40 42 43 42 41 42 41 37 35 37 35 31 30 25 21 31 36 31 26 26 29 33 34 33 32 29 26 27 28 28 28 26 27 33 33 31 30 28 26 25 24 25 28 29 28 26 25 25 24 23 21 21 22 21 21 23 23 24 25 25 24 23 22 21 20 20 18 16 16 17
59 59 59 59 58 54 51 49 47 46 48 49 48 47 46 44 43 42 39 37 37 37 35 33 34 37 36 32 31 28 23 29 38 37 30 27 27 29 32 32 28 25 26 28 28 27 28 27 29 34 35 33 33 32 29 27 25 24 26 30 31 29 27 27 26 24 22 21 22 23 23 24 24 25 25 25 24 24 23 22 21 20 18 17 17 17
62 61 58 57 56 53 51 49 48 48 50 51 49 48 48 46 44 43 40 37 36 35 33 34 36 37 35 33 32 32 30 28 34 39 38 35 31 30 31 29 25 26 27 26 25 26 27 27 30 35 36 35 35 33 30 28 26 25 25 28 31 31 29 28 27 25 23 22 22 24 26 26 25 25 25 24 25 25 25 24 22 20 19 19 18 17
64 63 59 56 55 53 49 46 47 48 50 53 52 50 50 48 46 44 42 38 34 33 34 37 39 36 32 31 33 36 35 32 32 37 42 41 37 36 34 29 29 33 31 27 27 30 30 30 33 36 37 37 35 33 31 30 28 27 27 27 29 30 29 29 28 27 25 24 25 26 27 27 26 25 24 25 26 26 26 25 23 21 20 19 19 18
66 64 60 57 56 54 49 44 42 43 47 55 59 54 49 47 46 44 39 34 30 28 29 33 35 32 29 31 34 37 37 36 34 35 40 43 41 38 36 34 36 40 40 37 34 32 31 33 35 37 37 37 36 34 33 33 32 30 29 28 28 30 31 31 30 29 28 28 28 27 28 29 28 26 24 24 26 28 28 26 24 22 21 20 21 20
70 66 63 61 59 55 48 43 41 43 50 59 62 57 50 46 45 43 38 35 33 28 27 30 30 29 31 33 35 37 39 39 37 36 40 44 43 40 38 38 41 44 45 45 42 37 35 36 36 35 35 35 35 35 35 37 37 36 33 31 31 33 35 34 32 32 31 31 30 29 29 30 30 27 25 25 27 29 29 27 25 23 23 23 22 20
70 69 68 65 62 57 48 43 45 50 55 59 59 58 56 49 43 41 39 39 40 36 33 32 31 31 33 34 34 36 41 43 42 40 42 44 45 44 43 42 44 46 47 47 45 41 39 38 36 34 34 35 36 37 40 41 42 41 40 38 36 36 36 36 35 34 34 33 32 32 32 32 31 29 26 27 29 31 30 28 26 25 24 23 22 20
65 69 73 70 66 62 51 43 48 54 54 53 54 57 60 56 48 43 42 43 45 43 41 39 37 35 35 35 34 36 39 45 47 46 46 46 47 48 48 45 44 46 46 46 45 43 40 39 38 37 37 38 38 40 44 45 45 45 45 44 41 39 39 39 38 37 37 36 34 34 33 33 33 31 29 28 31 32 30 29 27 25 25 23 21 20
57 62 71 74 71 69 58 44 46 54 51 48 51 54 58 61 56 48 44 44 46 45 44 43 42 39 38 36 35 36 36 39 44 48 50 50 49 50 51 49 48 47 47 47 46 45 44 43 42 42 42 43 44 45 47 47 47 48 49 48 46 43 42 43 43 40 38 38 36 35 35 35 35 34 31 29 31 32 30 29 27 26 25 23 21 20
52 52 63 72 72 72 66 51 46 54 54 50 51 51 52 59 61 53 46 45 46 46 46 46 45 43 41 37 35 36 36 34 36 41 46 49 52 53 52 51 51 50 50 50 49 47 47 47 47 46 46 48 50 51 50 49 49 51 51 48 46 44 43 44 44 41 40 40 38 36 36 37 37 36 33 30 30 31 30 29 28 27 25 24 22 20
52 47 55 67 67 67 71 63 53 54 58 55 52 47 45 55 62 60 53 49 49 49 49 48 46 43 41 40 38 37 36 35 35 37 39 40 45 52 55 55 54 53 52 52 51 48 47 48 49 49 50 52 53 53 53 51 50 50 50 47 46 45 43 43 42 41 41 41 40 39 38 38 38 37 35 32 30 30 30 30 29 27 26 24 22 21
56 48 51 60 60 58 66 68 60 57 59 60 55 45 42 50 60 64 60 55 54 55 53 50 48 45 43 43 42 40 38 37 37 38 39 37 37 42 50 55 57 57 56 55 54 52 50 51 52 52 53 54 54 53 53 52 50 49 49 48 48 47 46 43 42 42 43 44 44 42 39 39 39 39 37 35 32 30 31 31 30 28 27 26 25 23
60 51 48 53 52 50 57 62 59 59 62 64 61 52 44 47 56 64 66 62 59 59 56 52 50 49 48 47 46 44 42 41 40 40 40 40 39 38 41 46 53 58 60 60 58 57 55 55 56 56 56 56 55 53 53 54 54 53 51 50 50 50 49 46 44 44 46 47 47 46 43 41 40 40 39 37 35 33 33 32 31 30 30 29 27 25
65 55 46 46 47 48 52 54 54 58 63 65 65 59 52 49 52 58 65 66 65 63 59 56 55 53 52 51 50 49 47 45 44 43 41 41 42 41 40 41 45 51 56 60 62 62 61 59 60 59 58 57 56 55 55 56 57 56 55 55 55 52 50 50 49 49 50 50 50 49 47 44 42 42 42 41 39 37 36 34 32 31 32 32 30 29
69 58 47 45 44 43 48 52 52 55 61 65 66 64 59 54 52 54 57 60 62 62 59 58 58 57 57 56 54 53 53 50 48 47 46 45 44 43 43 43 44 45 48 52 56 59 60 60 61 62 62 62 61 60 59 59 59 58 57 58 57 55 54 55 55 54 53 53 53 52 50 47 45 44 44 45 44 41 38 36 34 34 35 35 34 33
71 61 50 47 42 37 45 54 55 56 61 64 66 67 65 60 57 55 54 53 55 57 57 56 56 57 57 57 57 57 56 55 53 51 50 49 48 46 44 44 45 46 47 48 49 50 50 51 51 54 59 64 68 68 67 65 64 62 61 60 59 58 58 58 59 59 57 56 56 54 52 48 46 45 45 47 47 45 42 40 38 37 38 38 36 37
74 65 52 46 41 37 44 54 55 57 62 65 66 68 68 66 62 60 58 57 56 55 54 54 53 53 53 51 50 52 54 55 56 54 52 50 50 49 48 47 47 47 48 50 51 50 49 48 47 47 49 55 62 68 72 73 72 70 68 66 64 64 63 62 63 63 61 58 57 57 54 50 48 47 47 48 50 49 46 43 42 41 41 40 39 38
72 70 55 45 43 42 46 53 52 51 58 64 66 66 67 66 64 63 63 63 63 60 57 54 53 54 55 53 50 49 50 53 54 53 52 50 50 50 50 50 50 51 51 52 53 53 52 51 50 49 48 49 53 58 64 70 73 75 75 74 72 70 69 68 68 67 64 61 61 62 59 54 51 51 50 50 52 53 50 47 46 45 44 42 41 40
64 71 60 47 44 44 47 52 50 47 53 61 63 63 62 60 60 60 58 59 60 60 57 55 53 53 53 53 53 51 50 50 50 50 51 50 50 50 51 51 51 53 55 56 56 56 55 54 54 53 51 50 50 51 54 59 63 67 71 74 75 75 75 75 74 73 71 68 66 67 66 60 55 55 55 52 54 56 54 50 49 48 46 45 43 42
60 69 65 53 46 45 47 50 51 49 51 55 59 60 57 53 53 55 53 52 53 54 52 50 50 50 48 48 49 50 49 48 49 50 50 51 51 51 50 49 49 51 53 55 57 58 58 58 58 58 56 55 53 51 51 52 55 58 61 63 67 71 75 78 79 76 76 75 71 71 73 67 59 58 58 55 56 59 57 53 50 49 48 47 45 44
59 65 67 59 50 47 46 47 51 53 51 48 52 57 54 48 47 49 48 47 49 50 51 49 47 47 47 45 45 47 49 49 48 49 50 51 52 52 50 49 49 49 50 52 54 56 58 59 59 60 60 59 56 55 55 56 58 60 61 61 61 63 68 76 78 73 71 73 74 75 76 71 63 60 60 59 60 62 59 54 52 50 50 49 47 46
53 58 65 64 56 49 46 45 48 53 52 47 47 52 52 48 47 46 43 44 46 47 47 47 46 45 46 45 44 45 47 48 49 50 50 51 51 52 51 50 50 50 50 50 51 52 54 54 55 56 57 57 56 57 59 62 62 62 63 65 65 63 63 69 74 71 66 66 68 71 73 70 65 64 65 63 63 62 58 54 52 52 51 50 48 47
48 49 57 65 61 53 47 45 46 49 51 49 48 47 44 43 46 47 43 42 45 46 44 42 43 44 44 43 44 45 45 46 48 49 50 50 50 50 50 49 49 49 50 50 50 51 51 52 52 52 53 53 54 56 57 58 59 60 62 64 65 66 66 68 71 71 67 63 62 62 64 66 67 66 63 60 60 59 55 52 52 52 50 48 48 48
Wind_Direction
246 246 244 240 239 241 240 242 239 222 217 221 219 211 207 208 206 198 185 181 204 229 247 268 282 289 296 296 290 294 301 297 286 286 277 250 251 264 264 249 237 231 220 209 190 175 170 171 175 178 182 184 186 187 187 191 192 189 187 185 186 185 185 185 179 173 170 165 164 163 164 162 161 164 164 158 131 118 112 97 82 63 50 31 8 354
247 250 250 242 237 237 236 234 231 220 216 219 219 212 208 211 206 192 174 177 209 237 255 270 279 285 292 290 282 282 287 293 290 276 262 245 241 252 260 249 235 226 215 204 196 188 179 177 180 182 185 185 186 189 192 198 199 196 195 194 194 195 197 198 192 187 183 180 180 178 178 176 173 173 169 164 145 121 109 92 71 41 21 2 345 339
253 258 254 241 235 233 230 229 227 220 214 216 217 213 208 201 192 182 171 176 199 226 245 257 268 279 287 286 279 277 283 299 300 274 260 254 239 241 251 249 238 221 207 202 198 196 190 185 185 186 191 192 192 194 198 205 206 206 207 206 205 204 207 209 207 203 196 193 196 196 195 193 189 187 183 183 174 145 130 75 32 360 349 342 333 331
256 262 254 241 235 232 229 227 225 221 215 213 214 212 200 190 192 182 171 179 198 218 237 248 264 277 281 281 278 279 289 303 307 291 278 270 242 230 238 245 243 228 213 206 203 200 197 192 189 190 196 201 202 202 204 208 212 215 219 221 220 217 216 217 219 216 208 207 210 212 212 210 206 202 197 199 200 194 212 302 334 331 332 330 328 329
249 249 244 240 235 232 231 228 226 223 218 214 213 211 195 189 199 187 173 186 199 208 225 237 256 269 270 273 278 284 291 299 305 297 284 275 251 228 232 242 243 239 227 212 204 203 202 199 196 195 198 203 205 205 206 208 212 220 225 230 235 235 228 223 225 224 218 217 220 222 224 224 221 216 211 212 221 235 254 291 313 319 323 323 324 327
242 240 240 242 238 233 231 229 228 226 222 217 214 212 195 188 197 193 182 193 198 202 217 230 245 259 265 270 277 282 287 293 295 291 287 278 261 233 229 234 234 239 237 220 202 198 205 209 208 204 200 202 206 208 208 207 210 217 223 227 233 238 236 229 226 227 226 224 224 227 231 234 231 225 222 222 234 253 275 297 309 313 313 315 320 324
238 238 239 242 242 237 233 230 229 227 225 220 214 211 199 190 197 199 188 195 200 197 213 234 246 254 261 265 271 277 283 289 285 286 295 288 271 245 226 227 229 235 239 228 204 193 202 215 219 217 210 209 214 217 218 215 214 214 217 220 223 229 237 236 229 227 231 232 228 229 234 237 235 230 229 232 244 260 279 297 303 306 309 311 315 321
236 235 236 239 244 244 239 234 229 228 228 220 209 211 205 195 199 199 190 197 204 196 208 237 247 248 255 261 269 275 280 282 278 285 308 300 281 258 232 228 228 230 235 233 217 201 200 210 221 222 217 218 224 228 230 228 224 220 220 222 223 227 234 239 235 226 228 233 232 231 235 237 236 232 230 238 250 262 277 292 297 303 307 308 312 317
233 233 234 237 240 244 246 241 232 231 231 217 205 212 208 200 198 194 193 199 205 205 209 224 237 243 252 260 266 269 271 272 271 288 310 301 283 265 247 245 238 230 232 231 225 215 204 206 218 222 219 220 225 229 230 231 234 235 234 234 234 234 235 238 238 228 224 228 230 232 234 237 238 233 232 239 251 263 273 284 292 299 304 306 308 311
237 235 232 233 234 237 242 241 234 236 234 215 207 213 206 201 197 191 196 201 205 214 214 215 228 241 249 255 258 259 261 264 272 290 300 292 283 270 253 254 249 240 238 234 229 226 219 214 219 223 222 221 221 224 229 236 242 246 249 248 247 246 245 245 243 237 228 224 226 230 233 236 238 236 237 242 249 260 270 278 287 293 298 301 304 304
240 236 234 235 234 233 234 234 232 235 233 216 210 213 205 200 197 195 200 203 209 217 217 213 223 237 244 246 249 251 252 260 274 284 285 284 284 277 260 254 251 246 244 241 234 229 229 228 224 223 223 223 221 222 229 236 240 244 247 250 251 252 253 252 250 247 239 229 226 229 234 237 237 235 237 243 247 255 264 273 281 288 292 295 296 296
244 241 242 243 239 233 230 230 229 230 229 217 212 214 209 203 201 201 203 203 210 218 218 213 216 229 237 239 241 246 250 257 269 272 271 273 278 279 267 255 250 245 241 242 239 232 230 232 231 227 227 228 227 227 232 235 239 242 243 246 250 252 252 252 253 253 249 240 233 232 235 238 238 236 235 241 246 251 259 268 275 283 288 290 291 290
246 245 245 242 238 236 235 234 230 229 228 221 214 214 214 209 206 208 207 207 213 219 220 214 212 224 236 240 239 243 249 254 260 260 256 259 267 273 267 254 248 243 239 241 242 237 231 231 234 232 233 235 233 234 237 240 242 243 243 244 247 250 249 248 249 252 252 247 241 238 238 239 239 239 239 241 245 249 255 263 269 277 284 286 287 286
240 238 238 238 237 237 236 235 233 232 233 230 223 219 220 216 213 215 215 213 217 222 222 217 215 224 235 241 241 241 247 252 253 250 252 262 267 271 273 263 250 243 239 238 239 238 235 235 237 238 238 239 237 237 240 242 243 243 245 246 246 247 248 247 246 247 248 247 245 243 242 242 241 240 241 242 245 249 253 258 264 271 279 283 284 283
242 240 239 241 244 244 242 240 239 238 237 236 229 224 226 226 223 222 221 219 220 223 222 218 219 225 231 238 242 242 248 254 255 256 260 265 265 269 275 269 257 247 239 236 236 235 235 237 238 238 238 238 237 239 240 241 242 243 247 250 250 249 248 247 246 245 245 246 245 243 242 243 243 241 242 243 245 248 250 253 259 267 274 280 282 280
249 247 243 244 243 240 241 241 240 240 238 236 229 225 230 231 227 225 223 222 221 222 223 222 224 228 231 237 241 241 245 251 257 262 259 254 257 262 265 266 264 255 243 238 236 234 234 236 237 237 237 235 236 239 240 242 245 246 249 252 254 254 251 249 247 244 243 244 244 244 242 243 245 244 243 244 245 246 248 251 256 262 269 275 278 276
251 248 240 242 243 237 236 236 236 239 240 237 232 232 236 234 229 228 227 225 223 224 228 228 229 232 233 236 238 236 239 244 252 257 252 245 249 253 254 260 268 267 253 243 237 235 234 234 235 237 237 234 235 238 240 244 248 250 251 253 255 255 252 248 244 242 240 240 243 243 242 243 245 246 245 244 245 246 248 250 253 258 266 270 271 271
248 246 236 235 242 241 236 233 233 236 237 237 236 236 237 232 228 230 230 229 227 230 234 234 233 235 234 235 237 236 237 241 249 249 241 239 247 252 253 259 267 271 257 244 238 235 231 230 234 238 238 234 235 238 239 244 249 251 252 254 254 253 250 245 242 240 239 238 239 240 241 242 243 245 246 246 248 249 249 249 251 256 262 264 265 265
244 245 238 231 235 237 233 230 230 231 232 235 238 237 235 233 230 230 231 231 230 234 238 238 236 236 236 237 238 236 233 236 245 243 236 239 249 256 260 266 274 271 251 242 240 236 231 232 236 239 237 234 234 238 241 245 251 256 258 258 256 253 250 248 246 244 242 241 240 240 240 241 243 245 247 248 248 248 248 247 249 252 257 259 257 257
243 245 241 232 230 230 230 230 229 228 229 230 231 231 231 233 236 236 239 241 238 237 241 243 241 239 239 239 238 237 233 231 239 240 238 245 253 258 264 273 282 279 257 244 246 242 237 238 240 239 234 231 232 236 240 244 251 259 263 262 260 257 254 252 250 247 244 241 239 239 239 240 243 244 245 246 245 245 246 246 246 249 252 251 246 247
240 242 240 234 229 228 231 234 235 233 231 230 230 232 231 231 233 235 240 244 243 242 242 244 246 246 244 240 237 238 238 231 233 236 239 249 255 252 259 267 274 282 273 251 248 245 238 236 239 237 230 226 228 231 233 238 246 255 262 266 263 260 257 253 251 248 245 241 238 238 238 238 239 239 239 241 240 240 241 242 243 244 245 241 237 240
238 241 240 235 231 231 232 236 239 239 236 234 234 237 239 237 235 236 239 240 241 243 243 242 247 249 247 242 235 235 236 229 226 230 234 244 250 250 256 260 260 271 270 247 241 245 243 240 241 239 233 229 227 229 231 235 242 251 261 266 264 260 256 252 251 249 246 243 239 237 236 234 233 233 232 233 235 235 235 237 237 235 233 232 233 238
238 240 241 236 232 234 235 234 235 236 237 236 233 233 237 240 239 238 241 243 244 248 248 245 249 251 248 245 235 229 228 222 220 225 229 235 243 248 253 250 247 255 259 249 247 257 259 252 245 241 240 237 232 228 230 234 240 247 254 258 259 256 252 248 248 249 248 245 241 237 235 233 231 228 226 227 229 230 229 229 226 220 218 224 231 240
236 234 236 237 233 231 233 233 232 229 227 229 230 226 227 234 239 239 242 246 248 251 251 249 252 254 249 245 231 217 213 214 217 225 230 233 238 246 250 246 242 247 253 255 258 264 262 249 242 239 239 240 237 231 233 240 243 244 246 249 250 249 245 243 245 247 247 246 243 240 237 231 225 221 220 221 222 221 220 217 211 206 208 217 229 241
237 233 231 233 231 226 223 226 228 226 223 226 231 228 224 227 232 235 237 239 241 244 246 249 255 258 252 243 228 214 210 210 215 223 232 235 238 245 250 249 248 250 254 260 262 263 258 243 239 240 238 239 238 233 238 250 252 249 245 242 243 243 242 241 243 246 246 246 244 241 238 230 223 218 218 218 217 214 211 207 203 203 206 214 226 239
230 234 231 229 230 228 224 224 227 230 230 232 234 231 224 221 225 231 234 234 237 240 242 248 257 260 255 245 230 219 214 209 211 221 229 234 237 241 246 247 250 250 249 254 258 261 259 244 237 239 241 240 236 230 236 249 254 251 243 238 238 239 238 239 244 247 247 247 245 241 238 232 225 220 219 219 218 214 209 206 206 207 210 216 226 235
225 229 231 229 229 231 230 229 229 232 234 235 236 235 229 221 222 229 234 237 240 242 244 250 256 260 258 251 239 229 219 211 212 222 227 230 234 236 237 239 244 247 247 253 258 262 263 249 234 236 242 242 237 230 232 243 250 248 241 240 241 240 239 241 248 251 250 248 246 241 238 235 227 223 221 222 222 218 212 210 212 212 214 218 224 231
224 227 230 231 229 229 228 226 226 229 234 236 238 240 239 231 225 227 234 239 242 243 246 249 252 255 259 255 248 244 226 210 211 221 226 227 232 233 229 225 229 234 241 253 260 264 268 258 237 233 238 241 237 233 232 238 245 245 240 239 240 241 242 245 250 255 255 251 248 243 239 236 231 227 225 225 226 223 219 218 216 214 214 217 223 230
222 227 231 232 232 229 225 222 219 222 229 234 236 239 241 239 234 233 235 239 243 245 248 249 249 252 257 252 246 246 226 204 208 217 221 223 229 232 230 227 227 231 241 255 263 264 265 258 240 233 235 237 237 236 234 234 239 242 241 240 240 243 247 249 251 256 259 257 251 245 242 239 235 232 231 230 229 228 225 222 218 215 214 215 222 231
219 225 229 230 232 231 227 221 216 214 219 226 231 235 237 238 238 239 240 239 240 244 247 246 245 246 249 248 244 240 227 206 206 212 217 222 227 231 234 234 235 242 247 253 258 257 257 253 241 232 231 235 238 237 234 232 233 239 243 242 244 249 252 253 255 258 262 263 256 248 244 242 239 237 236 234 232 229 226 222 218 215 213 216 223 230
217 222 225 226 228 230 229 224 217 212 212 217 224 230 233 234 235 238 240 240 239 240 241 241 242 242 242 243 241 238 234 224 213 210 213 220 224 230 237 235 234 241 240 239 245 248 249 247 239 232 230 232 237 239 239 236 236 239 243 242 243 247 250 253 255 258 261 265 260 252 248 247 244 241 240 237 232 228 225 221 217 214 214 219 225 228
216 219 221 224 225 226 227 226 220 214 211 211 217 224 228 229 230 232 237 240 241 243 243 241 241 241 237 236 239 238 235 232 226 214 211 216 221 229 236 233 230 234 233 233 242 247 247 244 236 230 230 234 237 240 243 246 246 246 247 244 242 244 247 251 254 258 261 264 263 258 254 252 249 244 241 238 233 228 225 221 216 214 216 222 227 230
214 215 217 221 223 223 223 224 223 220 216 213 214 216 220 224 226 226 230 236 242 249 250 244 241 239 234 232 237 238 231 224 223 219 214 216 222 227 231 232 233 237 235 232 235 239 242 241 234 230 233 238 240 242 245 251 255 254 251 246 242 242 246 250 253 256 258 261 264 264 260 256 253 247 241 237 234 229 225 222 217 215 217 222 228 234
213 213 212 216 220 221 220 221 221 220 220 218 214 211 212 217 221 222 223 228 235 241 244 241 236 234 234 232 232 233 228 218 215 214 213 215 220 225 228 231 235 241 243 239 235 234 234 232 230 232 238 242 245 247 250 254 256 257 255 250 244 242 244 248 250 252 255 258 262 265 263 259 257 251 242 237 235 231 228 224 219 216 219 223 228 236
211 211 211 213 217 217 216 219 221 221 222 222 216 209 209 212 216 219 221 222 226 230 233 232 230 228 230 231 227 225 223 219 215 212 211 213 218 222 227 230 232 237 243 245 243 240 236 231 227 228 234 242 247 250 253 254 256 258 258 255 251 247 246 248 249 249 251 254 258 261 262 261 259 253 244 238 237 235 231 226 221 219 223 226 231 239
210 211 210 212 215 215 212 215 222 225 225 227 222 211 206 208 212 215 218 219 222 226 229 232 235 234 233 231 227 222 218 218 219 217 214 215 218 221 225 229 230 233 238 243 245 244 242 239 234 230 232 237 243 248 250 253 255 257 258 257 256 253 251 252 251 248 249 252 255 258 259 260 259 256 248 240 238 237 233 228 224 224 226 230 235 242
208 211 210 210 213 214 211 211 223 227 224 226 229 218 206 205 210 211 214 218 221 224 230 236 241 242 239 233 229 225 219 217 219 218 218 219 220 222 225 228 230 232 235 239 243 245 245 241 237 236 237 237 239 243 246 249 252 255 257 257 257 256 254 252 251 249 248 251 253 256 257 257 257 257 251 243 239 237 233 230 229 229 230 234 239 247
203 206 208 210 212 212 210 208 216 225 222 222 229 227 212 206 209 210 212 216 218 221 229 236 241 242 241 236 231 227 223 222 224 225 224 223 223 223 227 231 232 234 237 241 243 246 248 246 243 242 242 241 241 242 244 246 249 252 254 255 256 257 255 251 249 248 248 251 253 255 255 255 255 256 253 246 241 237 233 232 233 234 235 239 245 252
200 200 204 208 208 209 210 208 208 216 220 221 226 228 219 211 209 209 211 214 216 219 226 233 236 238 239 238 235 231 227 227 232 235 233 230 226 223 226 231 234 236 240 243 243 243 248 251 251 248 247 245 243 242 243 244 246 248 251 252 254 255 252 249 247 246 247 250 252 253 252 251 251 253 253 249 243 237 234 233 234 237 240 244 249 256
202 199 199 201 200 200 204 207 206 209 215 219 221 221 218 215 210 208 211 215 216 219 224 229 231 232 232 233 235 235 234 234 234 234 233 235 235 229 227 229 233 236 240 242 241 240 242 247 250 250 249 249 247 245 245 247 248 249 250 250 251 251 250 249 248 247 245 246 248 248 247 246 249 251 251 249 245 238 235 235 235 239 244 248 252 256
206 201 195 192 191 192 196 201 204 207 211 216 218 214 212 214 212 209 211 214 217 220 222 224 226 227 227 228 231 235 239 239 236 234 233 235 239 239 235 231 230 233 238 241 242 241 241 243 246 248 250 252 252 251 250 251 252 252 251 250 248 247 248 250 249 246 243 243 244 245 244 243 246 249 248 247 244 240 238 238 239 243 247 250 254 258
207 203 196 188 186 189 192 195 200 207 210 212 215 215 212 211 212 212 212 214 216 219 221 222 224 226 225 225 228 232 237 238 237 237 238 238 240 243 245 242 237 234 235 237 240 242 243 243 245 246 248 250 252 253 252 252 252 251 251 250 247 246 247 248 244 241 241 241 242 245 245 243 243 245 246 244 242 241 241 241 243 247 250 252 257 261
207 204 197 185 183 189 193 194 196 204 209 210 211 213 214 211 211 213 213 214 217 219 221 222 224 227 227 227 229 232 235 237 238 241 243 244 246 248 249 250 248 245 241 240 239 240 242 243 245 246 246 247 249 250 251 251 252 250 249 248 247 247 248 247 242 239 239 241 242 243 243 242 241 242 244 244 242 241 241 243 246 249 251 254 259 261
207 205 198 186 183 189 193 194 195 199 206 209 208 209 212 212 213 214 215 217 220 221 223 224 226 229 230 231 231 233 235 237 239 243 246 247 249 252 253 252 252 251 249 248 246 243 243 243 245 246 246 245 246 247 248 249 251 251 250 249 247 246 247 247 243 239 238 239 241 241 239 239 240 239 240 242 241 240 240 242 246 248 250 253 257 260
208 206 200 190 189 192 192 194 195 197 203 208 208 208 210 213 216 220 222 224 225 225 226 228 230 231 233 233 232 232 233 236 239 242 245 247 249 251 252 252 253 254 252 251 251 251 250 249 248 247 246 245 245 246 247 249 250 252 253 252 250 249 249 248 243 239 237 237 238 239 237 238 240 239 238 238 239 239 240 241 244 247 249 252 255 259
209 206 201 194 195 197 195 194 195 196 202 208 211 213 214 216 219 224 228 229 228 229 232 235 236 236 235 235 235 234 234 236 239 241 244 246 248 249 249 248 250 252 254 253 253 254 255 254 253 251 249 248 247 246 247 249 251 253 254 255 254 253 252 251 246 241 237 236 237 238 237 239 242 241 237 236 236 237 238 239 242 245 247 250 254 257
210 206 202 197 195 196 195 194 195 197 200 206 212 216 218 218 219 223 228 230 231 232 236 238 238 238 238 238 239 240 240 240 240 242 243 245 246 247 246 245 245 247 250 253 254 255 256 257 257 256 255 255 253 251 249 249 251 253 255 257 257 255 253 252 249 243 237 235 236 237 237 241 244 240 236 234 234 235 236 237 240 243 246 249 253 257
214 208 204 200 195 193 192 194 197 199 201 206 213 216 216 216 219 222 225 227 228 230 234 236 236 236 238 239 240 241 243 242 241 241 242 243 244 245 245 245 245 247 248 250 252 254 256 258 259 259 259 260 261 261 260 257 256 255 256 259 260 259 257 253 250 245 240 235 233 234 237 241 241 236 234 233 233 234 235 235 238 243 245 248 253 256
217 213 209 204 199 195 193 193 196 200 200 205 215 218 213 212 219 224 224 225 227 230 233 235 235 235 236 237 238 239 241 242 242 242 242 242 244 245 245 246 247 249 250 251 252 253 255 257 259 259 259 261 264 267 268 267 265 263 261 261 260 260 259 256 254 253 248 240 235 234 236 237 235 232 231 229 229 231 232 233 236 241 245 248 252 255
217 216 212 207 203 202 199 195 196 199 200 204 215 219 216 214 219 225 228 229 230 233 234 234 234 235 235 236 237 238 239 241 242 242 243 244 245 246 248 249 249 250 252 253 253 254 255 257 258 258 259 261 264 266 266 267 268 267 266 264 262 260 259 257 257 256 252 246 240 236 234 233 228 226 227 227 225 225 228 231 235 240 243 247 251 254
217 217 213 208 206 206 205 199 196 198 201 207 215 220 220 222 227 230 233 233 232 233 234 233 233 234 235 236 237 238 239 240 242 243 244 245 245 247 248 250 251 253 254 255 256 257 259 260 261 262 263 264 265 266 266 266 267 268 267 266 265 264 262 259 259 258 253 249 246 242 237 231 226 224 228 227 221 219 223 229 234 238 242 246 250 254
Height
5868 5868 5870 5874 5876 5877 5878 5879 5881 5884 5885 5886 5888 5890 5893 5895 5896 5897 5898 5899 5900 5901 5901 5902 5903 5902 5901 5900 5902 5903 5905 5906 5907 5909 5909 5908 5907 5907 5907 5907 5907 5907 5907 5908 5908 5908 5909 5910 5911 5913 5914 5916 5917 5918 5919 5920 5921 5922 5922 5923 5924 5924 5925 5926 5926 5927 5928 5929 5929 5930 5930 5931 5932 5932 5933 5933 5933 5934 5934 5934 5934 5934 5934 5934 5934 5934
5865 5866 5869 5873 5874 5875 5876 5877 5878 5880 5881 5883 5885 5887 5890 5892 5894 5895 5894 5896 5898 5900 5901 5902 5903 5902 5900 5900 5901 5902 5904 5905 5906 5907 5907 5907 5907 5906 5906 5907 5907 5907 5907 5908 5908 5908 5909 5910 5911 5913 5914 5916 5917 5918 5919 5920 5921 5921 5922 5922 5923 5924 5924 5925 5926 5927 5928 5928 5929 5929 5930 5930 5931 5931 5932 5932 5933 5933 5933 5933 5934 5934 5934 5934 5934 5933
5864 5865 5868 5870 5871 5872 5873 5874 5875 5877 5878 5880 5882 5884 5887 5890 5892 5892 5890 5892 5895 5898 5899 5901 5902 5901 5901 5900 5899 5900 5902 5903 5903 5904 5906 5907 5907 5906 5906 5906 5906 5906 5907 5907 5908 5908 5909 5910 5911 5913 5914 5915 5917 5918 5919 5920 5920 5921 5922 5922 5923 5923 5924 5925 5925 5926 5927 5927 5928 5928 5929 5929 5930 5931 5931 5932 5932 5932 5933 5933 5933 5933 5933 5933 5933 5933
5863 5865 5867 5867 5868 5869 5870 5871 5872 5873 5875 5876 5878 5881 5884 5888 5890 5890 5890 5891 5893 5896 5898 5900 5901 5901 5899 5898 5897 5898 5899 5900 5900 5902 5903 5905 5906 5906 5905 5905 5906 5906 5906 5907 5907 5908 5909 5910 5911 5913 5913 5914 5916 5917 5919 5920 5920 5921 5921 5922 5922 5923 5924 5924 5925 5925 5926 5927 5927 5927 5928 5928 5929 5930 5930 5931 5931 5932 5932 5932 5932 5932 5932 5932 5932 5932
5861 5863 5863 5863 5864 5866 5867 5869 5869 5871 5872 5874 5876 5878 5882 5887 5889 5890 5890 5890 5891 5892 5895 5898 5900 5899 5897 5896 5895 5896 5897 5897 5899 5900 5901 5902 5904 5905 5905 5904 5905 5905 5906 5906 5907 5908 5908 5910 5911 5912 5913 5913 5915 5916 5917 5919 5920 5920 5921 5922 5922 5922 5923 5924 5924 5925 5925 5926 5926 5926 5927 5927 5928 5929 5929 5930 5930 5931 5931 5931 5932 5931 5931 5931 5931 5931
5859 5860 5860 5860 5861 5863 5864 5866 5867 5869 5871 5872 5873 5876 5881 5885 5887 5889 5888 5889 5888 5887 5891 5895 5896 5895 5894 5893 5894 5895 5895 5896 5897 5898 5899 5900 5902 5903 5904 5904 5904 5904 5905 5906 5906 5907 5908 5909 5910 5911 5912 5913 5913 5914 5915 5917 5918 5919 5920 5921 5921 5921 5922 5923 5924 5924 5924 5925 5925 5925 5926 5926 5927 5928 5929 5929 5929 5930 5930 5930 5931 5930 5930 5930 5930 5930
5857 5858 5858 5858 5859 5860 5861 5863 5865 5867 5868 5870 5873 5876 5879 5881 5884 5886 5886 5887 5885 5885 5889 5892 5892 5893 5891 5891 5891 5893 5894 5895 5895 5896 5897 5898 5900 5902 5903 5903 5902 5903 5904 5905 5906 5906 5907 5908 5909 5910 5911 5912 5913 5913 5914 5915 5916 5917 5918 5919 5920 5920 5920 5921 5922 5923 5923 5924 5924 5924 5925 5925 5926 5927 5928 5928 5928 5929 5929 5929 5929 5929 5929 5929 5929 5929
5854 5854 5855 5856 5857 5857 5858 5860 5863 5864 5865 5869 5874 5875 5875 5877 5880 5883 5884 5884 5884 5885 5886 5887 5889 5890 5888 5888 5890 5891 5892 5892 5893 5894 5895 5896 5898 5899 5901 5901 5901 5902 5903 5904 5904 5905 5905 5906 5908 5909 5910 5911 5912 5913 5914 5915 5915 5916 5917 5918 5918 5919 5919 5920 5921 5922 5922 5922 5923 5923 5924 5924 5925 5926 5927 5927 5927 5927 5928 5928 5928 5928 5928 5928 5928 5928
5850 5851 5853 5854 5854 5854 5856 5859 5861 5861 5863 5869 5873 5871 5873 5875 5876 5880 5881 5882 5883 5883 5880 5881 5884 5885 5884 5886 5888 5889 5889 5889 5890 5892 5894 5894 5895 5897 5898 5899 5900 5901 5902 5903 5903 5903 5904 5905 5906 5907 5908 5909 5910 5911 5912 5913 5914 5915 5916 5917 5917 5918 5918 5918 5919 5920 5921 5921 5922 5922 5923 5923 5924 5925 5925 5926 5926 5926 5927 5927 5927 5927 5927 5927 5927 5927
5847 5849 5850 5849 5850 5852 5854 5857 5858 5858 5861 5868 5869 5868 5871 5872 5873 5876 5877 5879 5881 5877 5875 5878 5880 5879 5880 5883 5885 5885 5885 5887 5889 5891 5892 5893 5893 5895 5896 5897 5899 5900 5901 5902 5902 5902 5903 5904 5905 5906 5907 5908 5909 5910 5911 5911 5912 5913 5914 5915 5916 5917 5917 5917 5918 5919 5919 5920 5920 5921 5921 5922 5923 5923 5924 5924 5925 5925 5925 5926 5926 5926 5926 5926 5926 5925
5845 5846 5845 5845 5848 5850 5852 5853 5854 5855 5859 5864 5865 5865 5867 5868 5870 5872 5872 5875 5874 5869 5870 5875 5876 5876 5877 5878 5879 5880 5882 5886 5889 5890 5891 5892 5891 5892 5894 5896 5897 5899 5900 5901 5901 5901 5901 5902 5903 5905 5905 5906 5908 5908 5909 5910 5910 5911 5912 5913 5914 5915 5916 5917 5917 5917 5918 5919 5919 5920 5920 5921 5921 5922 5923 5923 5924 5924 5924 5924 5925 5925 5925 5925 5924 5924
5841 5841 5842 5844 5846 5847 5848 5849 5850 5852 5855 5859 5860 5861 5863 5865 5867 5867 5867 5868 5864 5861 5867 5873 5874 5874 5871 5872 5875 5877 5881 5885 5886 5888 5890 5891 5890 5891 5892 5894 5896 5898 5899 5900 5900 5900 5900 5900 5902 5903 5904 5904 5906 5907 5908 5908 5908 5909 5910 5911 5912 5913 5915 5915 5916 5916 5917 5918 5918 5918 5919 5919 5920 5921 5922 5922 5922 5923 5923 5923 5923 5923 5923 5923 5923 5923
5837 5838 5840 5841 5842 5844 5845 5846 5848 5849 5850 5853 5856 5857 5858 5860 5861 5861 5861 5860 5857 5858 5865 5870 5872 5868 5864 5868 5874 5876 5878 5881 5882 5885 5888 5889 5890 5890 5891 5892 5894 5896 5897 5898 5898 5898 5898 5899 5901 5901 5902 5902 5904 5905 5906 5906 5907 5907 5908 5909 5910 5911 5912 5913 5914 5915 5915 5916 5917 5917 5917 5918 5919 5919 5920 5920 5921 5921 5921 5921 5922 5922 5921 5921 5921 5921
5832 5834 5835 5836 5838 5841 5842 5843 5844 5845 5847 5849 5851 5852 5853 5855 5855 5854 5855 5856 5855 5858 5863 5868 5868 5862 5861 5866 5871 5873 5876 5878 5880 5883 5885 5887 5888 5889 5889 5890 5891 5893 5894 5895 5896 5896 5896 5898 5899 5900 5900 5901 5902 5903 5904 5904 5905 5905 5906 5907 5908 5909 5909 5911 5912 5913 5914 5914 5915 5915 5916 5917 5917 5918 5918 5918 5919 5919 5919 5919 5920 5920 5920 5919 5919 5920
5828 5829 5831 5833 5836 5838 5839 5840 5842 5844 5845 5845 5848 5849 5849 5850 5850 5851 5853 5854 5855 5857 5861 5865 5861 5856 5858 5863 5867 5872 5874 5875 5877 5879 5883 5885 5886 5887 5887 5887 5889 5890 5892 5892 5893 5894 5894 5896 5897 5898 5898 5899 5900 5900 5901 5902 5902 5903 5904 5904 5905 5906 5907 5908 5909 5910 5911 5912 5912 5913 5914 5915 5916 5916 5916 5916 5917 5917 5917 5918 5918 5918 5918 5918 5918 5918
5823 5826 5831 5832 5832 5834 5835 5837 5840 5840 5840 5842 5844 5844 5842 5845 5848 5850 5851 5853 5855 5856 5857 5859 5855 5853 5858 5861 5865 5869 5870 5871 5874 5876 5879 5882 5883 5884 5884 5884 5886 5888 5889 5890 5891 5891 5892 5893 5895 5895 5896 5896 5897 5898 5899 5900 5900 5901 5901 5902 5902 5903 5904 5905 5906 5907 5908 5909 5910 5911 5912 5913 5913 5914 5914 5914 5914 5915 5915 5916 5916 5916 5916 5916 5916 5916
5819 5823 5829 5828 5826 5829 5831 5834 5835 5835 5836 5838 5838 5837 5839 5844 5848 5848 5848 5851 5853 5851 5851 5853 5852 5853 5857 5858 5862 5866 5867 5869 5871 5872 5875 5878 5879 5880 5880 5882 5884 5886 5886 5887 5888 5890 5890 5891 5892 5893 5894 5894 5895 5896 5898 5898 5898 5899 5899 5899 5900 5900 5901 5902 5903 5904 5905 5906 5907 5908 5909 5910 5911 5912 5912 5912 5912 5912 5913 5914 5914 5914 5914 5914 5914 5914
5815 5817 5823 5823 5822 5826 5829 5830 5830 5830 5832 5833 5833 5835 5839 5843 5844 5844 5844 5846 5847 5845 5845 5849 5850 5851 5853 5855 5858 5862 5864 5867 5869 5869 5872 5875 5876 5876 5877 5879 5882 5883 5884 5884 5885 5887 5887 5888 5889 5891 5892 5892 5893 5895 5896 5896 5896 5896 5897 5898 5898 5898 5899 5900 5900 5901 5901 5903 5904 5905 5906 5907 5908 5909 5909 5909 5909 5910 5911 5911 5912 5912 5912 5913 5913 5912
5810 5811 5816 5819 5819 5821 5824 5824 5823 5824 5826 5828 5831 5834 5836 5836 5837 5838 5838 5839 5840 5840 5840 5844 5846 5847 5848 5851 5855 5860 5862 5865 5867 5867 5869 5871 5873 5874 5876 5877 5879 5881 5882 5882 5883 5884 5885 5886 5887 5888 5889 5890 5891 5892 5893 5894 5894 5895 5895 5896 5896 5897 5897 5897 5898 5898 5899 5900 5901 5902 5903 5904 5905 5906 5907 5907 5907 5907 5908 5909 5909 5910 5910 5911 5911 5911
5805 5805 5808 5813 5815 5817 5817 5815 5815 5818 5822 5825 5827 5828 5830 5831 5832 5834 5833 5833 5836 5836 5837 5840 5841 5842 5844 5848 5852 5856 5859 5863 5865 5865 5866 5868 5870 5872 5874 5875 5877 5878 5878 5879 5880 5882 5883 5884 5885 5886 5886 5887 5889 5890 5891 5891 5892 5893 5893 5894 5895 5895 5895 5895 5896 5896 5897 5897 5898 5899 5900 5900 5902 5903 5903 5904 5904 5905 5905 5906 5907 5907 5908 5909 5909 5910
5798 5797 5801 5807 5810 5809 5807 5807 5810 5816 5819 5820 5821 5822 5824 5826 5827 5829 5829 5829 5831 5832 5834 5836 5836 5837 5842 5846 5849 5852 5856 5860 5862 5863 5864 5865 5868 5870 5872 5873 5874 5875 5876 5876 5878 5879 5881 5882 5882 5883 5884 5885 5886 5887 5887 5888 5890 5891 5891 5892 5893 5893 5893 5894 5894 5894 5894 5895 5895 5896 5897 5897 5898 5899 5900 5900 5901 5902 5902 5903 5904 5905 5905 5906 5907 5908
5791 5792 5795 5801 5801 5800 5802 5806 5809 5812 5814 5816 5818 5819 5821 5823 5824 5824 5824 5825 5826 5827 5829 5832 5832 5834 5838 5842 5846 5849 5853 5857 5859 5861 5862 5863 5866 5867 5869 5871 5872 5873 5874 5875 5876 5878 5878 5879 5880 5881 5882 5883 5883 5884 5885 5886 5887 5889 5889 5890 5891 5891 5891 5892 5892 5892 5893 5893 5893 5893 5894 5894 5895 5896 5897 5897 5898 5899 5900 5900 5901 5902 5903 5904 5905 5906
5788 5788 5788 5791 5793 5795 5800 5804 5805 5807 5809 5811 5813 5816 5818 5819 5819 5820 5820 5822 5824 5824 5826 5829 5828 5830 5835 5839 5843 5847 5850 5854 5855 5856 5858 5860 5862 5864 5865 5868 5869 5871 5872 5873 5874 5876 5876 5877 5878 5879 5880 5880 5880 5881 5882 5884 5885 5886 5887 5888 5888 5889 5890 5890 5890 5891 5891 5891 5891 5891 5891 5892 5893 5893 5894 5894 5895 5896 5897 5898 5899 5900 5901 5901 5902 5903
5780 5779 5779 5783 5788 5792 5795 5797 5798 5800 5802 5803 5805 5810 5813 5813 5815 5818 5819 5821 5823 5822 5823 5824 5822 5826 5834 5837 5840 5844 5847 5849 5851 5852 5854 5856 5858 5860 5861 5863 5865 5867 5869 5870 5871 5873 5874 5874 5875 5876 5877 5877 5877 5878 5879 5881 5882 5884 5885 5885 5886 5887 5888 5888 5889 5889 5890 5890 5890 5889 5890 5890 5890 5891 5891 5892 5892 5893 5894 5895 5896 5897 5898 5899 5900 5900
5770 5771 5773 5776 5779 5782 5784 5785 5787 5790 5793 5795 5799 5804 5808 5810 5812 5813 5815 5817 5817 5817 5819 5819 5816 5822 5832 5835 5837 5840 5842 5845 5848 5849 5850 5851 5853 5855 5857 5859 5862 5863 5865 5867 5867 5869 5870 5871 5872 5872 5874 5874 5875 5875 5877 5878 5880 5881 5882 5883 5884 5885 5886 5886 5887 5887 5888 5888 5888 5888 5888 5888 5889 5889 5889 5889 5890 5890 5891 5893 5894 5895 5895 5897 5897 5898
5758 5761 5765 5766 5767 5770 5773 5775 5778 5783 5788 5791 5794 5798 5802 5806 5808 5808 5809 5810 5809 5812 5815 5815 5813 5820 5828 5832 5833 5835 5837 5841 5844 5845 5846 5847 5849 5851 5853 5856 5858 5860 5861 5863 5864 5865 5867 5868 5869 5870 5871 5871 5872 5873 5874 5876 5877 5878 5880 5881 5881 5882 5883 5884 5885 5885 5886 5886 5886 5887 5887 5887 5887 5888 5887 5887 5887 5888 5889 5890 5891 5892 5893 5894 5895 5896
5749 5751 5755 5758 5760 5765 5770 5775 5779 5782 5784 5786 5789 5792 5796 5801 5804 5804 5804 5803 5805 5810 5812 5812 5813 5817 5822 5827 5830 5832 5834 5838 5841 5842 5843 5844 5845 5847 5849 5852 5855 5856 5858 5859 5860 5861 5862 5864 5866 5867 5868 5869 5870 5871 5872 5874 5875 5876 5877 5879 5879 5880 5880 5881 5882 5883 5884 5884 5884 5885 5885 5885 5886 5886 5885 5885 5885 5886 5887 5888 5888 5889 5890 5891 5892 5893
5742 5743 5747 5751 5755 5761 5768 5774 5779 5780 5780 5782 5786 5788 5791 5796 5799 5799 5798 5799 5804 5807 5807 5810 5814 5815 5817 5822 5825 5828 5831 5835 5838 5840 5840 5841 5842 5843 5845 5847 5850 5852 5854 5855 5856 5857 5858 5860 5862 5863 5864 5865 5867 5868 5870 5871 5872 5873 5874 5876 5877 5877 5878 5878 5879 5880 5881 5881 5882 5882 5883 5883 5883 5883 5883 5883 5883 5883 5884 5885 5886 5886 5887 5888 5890 5891
5735 5738 5743 5745 5748 5756 5763 5767 5772 5776 5776 5778 5781 5783 5786 5790 5792 5794 5796 5798 5801 5801 5803 5809 5812 5812 5814 5819 5821 5824 5828 5832 5834 5836 5837 5838 5839 5840 5841 5843 5845 5847 5850 5851 5852 5854 5855 5857 5858 5859 5860 5862 5863 5865 5867 5868 5870 5871 5871 5873 5873 5874 5875 5876 5876 5877 5878 5879 5880 5880 5880 5880 5881 5881 5881 5881 5881 5881 5882 5882 5883 5883 5884 5886 5887 5888
5727 5733 5738 5739 5741 5748 5755 5760 5765 5769 5771 5773 5775 5778 5781 5784 5786 5788 5792 5796 5797 5798 5801 5806 5808 5808 5812 5816 5817 5820 5824 5827 5829 5831 5833 5834 5835 5836 5837 5839 5841 5844 5845 5847 5849 5851 5852 5854 5855 5856 5857 5858 5860 5862 5863 5865 5867 5868 5869 5870 5871 5872 5873 5873 5874 5875 5876 5876 5877 5878 5877 5877 5878 5878 5879 5879 5879 5879 5879 5879 5880 5880 5882 5883 5884 5885
5721 5727 5731 5733 5735 5739 5746 5753 5759 5762 5765 5768 5770 5772 5775 5778 5781 5783 5786 5790 5792 5795 5798 5801 5801 5803 5808 5813 5814 5816 5819 5822 5825 5826 5828 5830 5831 5832 5832 5834 5837 5839 5841 5843 5845 5848 5850 5851 5851 5852 5854 5855 5856 5858 5860 5862 5864 5865 5866 5867 5868 5869 5871 5871 5871 5872 5873 5874 5875 5874 5874 5874 5875 5875 5876 5876 5876 5876 5876 5876 5876 5877 5878 5880 5881 5882
5715 5721 5725 5727 5729 5732 5739 5746 5751 5756 5761 5762 5764 5766 5768 5771 5775 5778 5780 5784 5787 5790 5794 5795 5796 5799 5806 5809 5810 5811 5814 5817 5820 5823 5824 5825 5827 5828 5828 5831 5833 5835 5837 5839 5842 5844 5847 5847 5848 5849 5850 5852 5853 5854 5856 5858 5860 5861 5863 5864 5865 5867 5867 5867 5868 5869 5870 5871 5871 5871 5871 5871 5872 5872 5873 5873 5873 5873 5873 5873 5873 5874 5876 5877 5877 5879
5709 5715 5720 5722 5723 5727 5733 5739 5746 5752 5753 5751 5753 5759 5763 5766 5769 5773 5777 5779 5783 5787 5789 5790 5792 5797 5802 5805 5805 5806 5809 5813 5816 5819 5821 5822 5824 5824 5825 5828 5829 5830 5832 5835 5837 5840 5843 5844 5845 5846 5847 5848 5849 5851 5853 5854 5856 5858 5860 5861 5862 5863 5863 5864 5865 5866 5867 5868 5868 5868 5868 5868 5868 5869 5870 5870 5870 5870 5869 5870 5871 5872 5873 5874 5874 5875
5703 5709 5714 5715 5717 5723 5728 5734 5741 5743 5740 5741 5748 5756 5760 5763 5765 5769 5772 5775 5778 5783 5785 5786 5789 5793 5796 5798 5800 5803 5807 5810 5812 5815 5817 5818 5820 5821 5822 5824 5826 5827 5828 5830 5833 5835 5837 5838 5840 5842 5844 5845 5846 5848 5849 5850 5851 5853 5855 5857 5858 5858 5859 5860 5861 5862 5863 5864 5865 5865 5865 5865 5865 5866 5867 5867 5866 5866 5866 5867 5868 5869 5870 5870 5871 5872
5695 5701 5706 5708 5713 5719 5723 5728 5731 5729 5730 5737 5746 5752 5757 5760 5764 5767 5768 5769 5773 5777 5779 5780 5784 5787 5790 5793 5796 5799 5803 5806 5808 5810 5813 5814 5815 5816 5817 5819 5821 5823 5824 5825 5828 5830 5832 5833 5835 5837 5839 5841 5843 5844 5844 5845 5847 5849 5850 5851 5853 5854 5855 5856 5858 5858 5859 5860 5861 5862 5861 5861 5862 5862 5863 5863 5863 5862 5863 5864 5865 5865 5866 5867 5868 5869
5687 5692 5697 5702 5707 5713 5717 5721 5722 5722 5728 5736 5740 5745 5751 5755 5759 5762 5762 5764 5767 5770 5772 5775 5778 5782 5785 5788 5792 5794 5797 5800 5802 5805 5808 5809 5811 5812 5812 5814 5816 5818 5819 5820 5822 5825 5827 5830 5831 5833 5834 5836 5837 5838 5839 5840 5842 5843 5844 5845 5847 5849 5851 5852 5853 5854 5855 5856 5857 5858 5858 5858 5858 5858 5859 5859 5859 5859 5860 5861 5861 5862 5863 5864 5865 5866
5679 5684 5689 5694 5699 5705 5711 5717 5719 5722 5728 5732 5733 5738 5746 5749 5752 5756 5758 5760 5763 5765 5767 5771 5774 5777 5780 5783 5787 5790 5792 5794 5797 5800 5802 5805 5807 5808 5809 5810 5811 5812 5814 5815 5816 5819 5821 5824 5827 5829 5830 5831 5831 5832 5834 5836 5837 5837 5838 5840 5841 5844 5846 5847 5848 5850 5851 5852 5854 5854 5854 5854 5854 5854 5855 5856 5856 5857 5858 5858 5858 5859 5860 5861 5862 5862
5672 5677 5681 5686 5692 5698 5705 5711 5715 5718 5723 5726 5727 5731 5740 5744 5747 5752 5755 5757 5759 5762 5764 5767 5770 5772 5774 5777 5782 5785 5788 5790 5792 5794 5797 5799 5802 5805 5806 5807 5808 5809 5810 5810 5812 5815 5816 5817 5820 5823 5825 5826 5827 5828 5830 5831 5832 5832 5833 5835 5837 5838 5840 5842 5844 5845 5847 5848 5850 5851 5851 5851 5850 5851 5852 5853 5853 5854 5855 5855 5855 5856 5856 5857 5858 5859
5666 5669 5673 5678 5685 5692 5698 5704 5709 5713 5718 5723 5725 5727 5734 5738 5741 5746 5750 5751 5754 5758 5761 5763 5765 5768 5770 5773 5777 5780 5784 5787 5788 5790 5791 5794 5798 5801 5802 5803 5804 5805 5806 5808 5809 5811 5812 5813 5814 5817 5819 5820 5822 5824 5825 5825 5826 5827 5828 5830 5832 5833 5835 5837 5839 5841 5843 5844 5846 5847 5847 5847 5847 5847 5848 5849 5850 5851 5852 5852 5852 5852 5853 5853 5854 5855
5660 5662 5665 5670 5676 5683 5689 5697 5703 5709 5714 5718 5721 5723 5728 5732 5736 5740 5743 5745 5749 5754 5756 5759 5761 5764 5767 5770 5772 5775 5779 5782 5785 5786 5787 5790 5793 5796 5798 5800 5801 5802 5802 5803 5805 5807 5809 5809 5810 5811 5812 5813 5816 5819 5820 5820 5820 5821 5823 5825 5827 5827 5829 5832 5835 5837 5838 5840 5841 5842 5843 5843 5843 5844 5844 5845 5846 5847 5847 5848 5848 5849 5849 5849 5850 5851
5651 5654 5657 5661 5668 5675 5681 5689 5697 5701 5704 5708 5713 5717 5721 5725 5730 5734 5736 5740 5745 5749 5752 5756 5758 5759 5762 5766 5769 5772 5774 5776 5779 5782 5784 5786 5788 5790 5792 5795 5796 5797 5798 5799 5800 5802 5804 5805 5806 5807 5807 5808 5810 5812 5812 5813 5814 5816 5818 5820 5820 5821 5824 5827 5829 5830 5831 5833 5834 5835 5838 5839 5839 5839 5840 5841 5841 5842 5842 5843 5844 5845 5845 5845 5846 5846
5644 5648 5652 5656 5662 5669 5675 5681 5688 5693 5696 5701 5708 5713 5716 5720 5724 5728 5732 5736 5740 5744 5748 5752 5753 5755 5758 5761 5764 5767 5769 5771 5774 5776 5779 5782 5783 5785 5787 5788 5790 5792 5793 5794 5795 5797 5799 5801 5802 5803 5804 5804 5804 5805 5805 5805 5806 5809 5812 5813 5814 5816 5819 5821 5821 5821 5823 5825 5827 5828 5830 5832 5834 5834 5834 5835 5835 5836 5837 5838 5839 5840 5840 5840 5841 5841
5638 5644 5650 5654 5659 5666 5671 5674 5680 5685 5689 5696 5703 5709 5713 5716 5719 5724 5729 5733 5736 5740 5743 5747 5749 5751 5753 5756 5760 5763 5765 5766 5769 5771 5774 5776 5778 5780 5781 5783 5784 5785 5787 5788 5789 5791 5793 5795 5797 5798 5799 5799 5799 5799 5799 5798 5799 5802 5804 5805 5808 5811 5812 5812 5812 5813 5815 5817 5819 5821 5822 5825 5827 5828 5829 5829 5830 5830 5831 5833 5834 5834 5835 5835 5835 5836
5636 5641 5647 5652 5657 5663 5666 5667 5672 5677 5682 5689 5697 5703 5707 5712 5715 5719 5725 5729 5732 5735 5738 5741 5743 5746 5748 5752 5755 5758 5760 5762 5764 5766 5768 5770 5772 5774 5775 5776 5777 5779 5780 5781 5782 5784 5787 5789 5790 5791 5791 5791 5792 5792 5792 5792 5793 5795 5797 5798 5800 5802 5803 5804 5805 5806 5807 5809 5811 5813 5815 5817 5820 5822 5823 5824 5825 5825 5826 5827 5828 5829 5829 5830 5830 5830
5631 5637 5644 5649 5654 5657 5660 5663 5668 5673 5677 5683 5691 5697 5702 5707 5711 5716 5720 5723 5726 5729 5731 5735 5738 5741 5743 5747 5750 5752 5755 5757 5758 5760 5763 5764 5766 5768 5769 5770 5771 5772 5773 5774 5775 5777 5779 5781 5782 5783 5784 5784 5784 5784 5785 5786 5787 5789 5790 5791 5792 5793 5795 5797 5797 5798 5800 5802 5804 5806 5808 5810 5812 5815 5818 5819 5819 5820 5821 5822 5822 5823 5824 5825 5825 5826
5626 5634 5641 5646 5650 5653 5656 5661 5667 5671 5673 5679 5687 5693 5698 5703 5707 5711 5715 5718 5721 5724 5727 5730 5733 5735 5738 5741 5744 5746 5749 5751 5753 5755 5757 5759 5761 5762 5763 5764 5765 5765 5766 5767 5768 5770 5772 5773 5774 5775 5777 5778 5778 5779 5780 5780 5781 5783 5783 5784 5784 5786 5787 5788 5789 5790 5792 5794 5796 5797 5799 5801 5804 5807 5811 5812 5813 5813 5814 5815 5816 5817 5818 5819 5820 5821
5622 5631 5639 5643 5647 5650 5654 5659 5664 5668 5671 5677 5684 5690 5694 5698 5703 5707 5710 5713 5717 5720 5723 5725 5728 5730 5733 5736 5738 5741 5743 5745 5748 5749 5751 5753 5754 5755 5756 5758 5759 5759 5760 5761 5762 5763 5764 5765 5766 5767 5769 5771 5772 5774 5775 5776 5776 5777 5776 5776 5776 5778 5779 5779 5780 5780 5781 5782 5784 5786 5788 5790 5795 5799 5802 5804 5805 5806 5807 5809 5810 5811 5812 5814 5815 5815
5619 5628 5635 5640 5644 5648 5654 5659 5663 5665 5669 5675 5681 5685 5689 5694 5700 5703 5705 5708 5711 5715 5718 5720 5723 5726 5729 5731 5733 5735 5737 5739 5741 5743 5745 5746 5747 5748 5750 5751 5752 5753 5754 5755 5756 5757 5757 5758 5759 5760 5762 5763 5765 5767 5769 5770 5770 5770 5770 5769 5769 5770 5770 5770 5769 5770 5770 5769 5770 5772 5775 5779 5784 5789 5793 5796 5797 5798 5799 5801 5803 5805 5806 5808 5809 5810
5616 5624 5632 5638 5642 5646 5651 5656 5659 5661 5666 5673 5678 5681 5685 5691 5696 5699 5701 5704 5707 5710 5713 5716 5718 5721 5724 5726 5728 5729 5731 5733 5735 5737 5738 5740 5741 5742 5744 5746 5747 5748 5748 5749 5750 5751 5752 5752 5753 5754 5755 5757 5759 5760 5761 5761 5761 5761 5762 5762 5761 5762 5762 5760 5759 5761 5762 5760 5757 5756 5759 5765 5773 5778 5781 5784 5787 5788 5791 5794 5796 5798 5800 5801 5803 5804
5614 5621 5628 5635 5640 5643 5646 5650 5653 5657 5663 5670 5675 5678 5683 5688 5692 5694 5697 5700 5703 5706 5708 5711 5713 5716 5718 5720 5723 5724 5726 5727 5729 5731 5733 5734 5736 5737 5738 5740 5741 5742 5742 5743 5744 5745 5746 5746 5747 5748 5749 5751 5753 5754 5754 5753 5753 5753 5752 5751 5751 5753 5753 5752 5750 5751 5752 5750 5748 5748 5750 5755 5761 5765 5768 5772 5776 5779 5783 5787 5790 5791 5793 5795 5796 5797
5612 5618 5625 5631 5636 5639 5643 5646 5650 5654 5660 5666 5670 5675 5680 5685 5689 5690 5691 5695 5699 5702 5705 5707 5709 5711 5713 5715 5717 5718 5720 5722 5723 5725 5727 5728 5730 5731 5733 5734 5735 5736 5737 5737 5738 5739 5739 5740 5741 5742 5744 5745 5746 5745 5745 5745 5745 5744 5742 5740 5740 5742 5743 5742 5739 5738 5737 5738 5740 5745 5750 5750 5751 5755 5761 5766 5769 5771 5775 5780 5782 5784 5787 5788 5789 5790